• In Hungary
  • List of Countries
  • For 7 days
  • Water Temperature
  • Satellite Maps
  • Weather Map
  • News
  • Weather Widgets
  • user-avatar
    Login

    Hourly Weather Puerto Manzanillo

    Today, 14 December, Thursday

    Time Temperature Precipitation Wind Pressure Humidity
    00:00 +25°C° 1.8 mm 4 mps 756 mmHg 79%
    01:00 +25°C° 2.4 mm 4 mps 755 mmHg 79%
    02:00 +25°C° 2.4 mm 4 mps 755 mmHg 79%
    03:00 +25°C° 2.4 mm 4 mps 755 mmHg 79%
    04:00 +25°C° 2.5 mm 3 mps 755 mmHg 80%
    05:00 +25°C° 2.5 mm 3 mps 755 mmHg 81%
    06:00 +25°C° 2.5 mm 3 mps 755 mmHg 82%
    07:00 +26°C° 2.2 mm 3 mps 756 mmHg 82%
    08:00 +26°C° 2.2 mm 3 mps 756 mmHg 81%
    09:00 +26°C° 2.2 mm 3 mps 756 mmHg 81%
    10:00 +27°C° 1.2 mm 3 mps 756 mmHg 80%
    11:00 +27°C° 1.2 mm 3 mps 756 mmHg 80%
    12:00 +27°C° 1.2 mm 3 mps 755 mmHg 79%
    13:00 +28°C° 0.2 mm 3 mps 755 mmHg 74%
    14:00 +29°C° 0.2 mm 3 mps 754 mmHg 70%
    15:00 +30°C° 0.2 mm 3 mps 754 mmHg 66%
    16:00 +28°C° 0 mm 3 mps 754 mmHg 72%
    17:00 +26°C° 0 mm 3 mps 754 mmHg 78%
    18:00 +24°C° 0 mm 2 mps 754 mmHg 85%
    19:00 +24°C° 0 mm 2 mps 755 mmHg 82%
    20:00 +24°C° 0 mm 2 mps 755 mmHg 80%
    21:00 +24°C° 0 mm 2 mps 756 mmHg 78%
    22:00 +24°C° 0 mm 2 mps 756 mmHg 76%
    23:00 +23°C° 0 mm 2 mps 755 mmHg 75%

    Tomorrow, 15 December, Friday

    Time Temperature Precipitation Wind Pressure Humidity
    00:00 +23°C° 0 mm 2 mps 755 mmHg 73%
    01:00 +23°C° 0 mm 2 mps 755 mmHg 71%
    02:00 +22°C° 0 mm 3 mps 755 mmHg 69%
    03:00 +22°C° 0 mm 3 mps 754 mmHg 68%
    04:00 +22°C° 0 mm 3 mps 755 mmHg 67%
    05:00 +23°C° 0 mm 2 mps 755 mmHg 66%
    06:00 +23°C° 0 mm 2 mps 755 mmHg 66%
    07:00 +26°C° 0 mm 2 mps 755 mmHg 62%
    08:00 +29°C° 0 mm 2 mps 756 mmHg 58%
    09:00 +32°C° 0 mm 2 mps 756 mmHg 54%
    10:00 +32°C° 0 mm 2 mps 756 mmHg 51%
    11:00 +34°C° 0 mm 2 mps 755 mmHg 49%
    12:00 +34°C° 0 mm 2 mps 755 mmHg 47%
    13:00 +34°C° 0 mm 2 mps 754 mmHg 49%
    14:00 +32°C° 0 mm 2 mps 754 mmHg 51%
    15:00 +32°C° 0 mm 2 mps 753 mmHg 53%
    16:00 +29°C° 0 mm 2 mps 753 mmHg 62%
    17:00 +27°C° 0 mm 2 mps 754 mmHg 71%
    18:00 +25°C° 0 mm 2 mps 754 mmHg 80%
    19:00 +24°C° 0 mm 2 mps 755 mmHg 76%
    20:00 +24°C° 0 mm 2 mps 755 mmHg 71%
    21:00 +24°C° 0 mm 2 mps 756 mmHg 66%
    22:00 +24°C° 0 mm 2 mps 756 mmHg 60%
    23:00 +24°C° 0 mm 3 mps 755 mmHg 55%

    Day after tomorrow, 16 December, Saturday

    Time Temperature Precipitation Wind Pressure Humidity
    00:00 +24°C° 0 mm 3 mps 755 mmHg 50%
    01:00 +24°C° 0 mm 3 mps 755 mmHg 53%
    02:00 +24°C° 0 mm 3 mps 755 mmHg 57%
    03:00 +24°C° 0 mm 3 mps 754 mmHg 61%
    04:00 +24°C° 0 mm 3 mps 754 mmHg 67%
    05:00 +25°C° 0 mm 3 mps 755 mmHg 72%
    06:00 +25°C° 0 mm 2 mps 755 mmHg 77%
    07:00 +27°C° 0 mm 2 mps 755 mmHg 71%
    08:00 +30°C° 0 mm 2 mps 756 mmHg 65%
    09:00 +32°C° 0 mm 2 mps 756 mmHg 59%
    10:00 +34°C° 0 mm 2 mps 756 mmHg 57%
    11:00 +34°C° 0 mm 2 mps 755 mmHg 54%
    12:00 +35°C° 0 mm 2 mps 755 mmHg 52%
    13:00 +34°C° 0 mm 2 mps 754 mmHg 54%
    14:00 +32°C° 0 mm 2 mps 754 mmHg 56%
    15:00 +32°C° 0 mm 2 mps 753 mmHg 58%
    16:00 +29°C° 0.1 mm 2 mps 754 mmHg 65%
    17:00 +27°C° 0.1 mm 2 mps 754 mmHg 72%
    18:00 +25°C° 0.1 mm 2 mps 754 mmHg 79%
    19:00 +25°C° 0 mm 2 mps 755 mmHg 76%
    20:00 +24°C° 0 mm 2 mps 755 mmHg 72%
    21:00 +24°C° 0 mm 3 mps 756 mmHg 68%
    22:00 +24°C° 0 mm 3 mps 755 mmHg 68%
    23:00 +24°C° 0 mm 3 mps 755 mmHg 67%

    17 December, Sunday

    Time Temperature Precipitation Wind Pressure Humidity
    00:00 +24°C° 0 mm 3 mps 755 mmHg 66%
    01:00 +24°C° 0 mm 3 mps 755 mmHg 69%
    02:00 +25°C° 0 mm 3 mps 754 mmHg 71%
    03:00 +25°C° 0 mm 3 mps 754 mmHg 74%
    04:00 +25°C° 0 mm 3 mps 754 mmHg 78%
    05:00 +25°C° 0 mm 2 mps 755 mmHg 82%
    06:00 +26°C° 0 mm 2 mps 755 mmHg 86%
    07:00 +28°C° 0 mm 2 mps 755 mmHg 75%
    08:00 +30°C° 0 mm 3 mps 756 mmHg 65%
    09:00 +31°C° 0 mm 3 mps 756 mmHg 54%
    10:00 +32°C° 0 mm 2 mps 755 mmHg 52%
    11:00 +34°C° 0 mm 2 mps 755 mmHg 51%
    12:00 +35°C° 0 mm 2 mps 754 mmHg 50%
    13:00 +34°C° 0 mm 2 mps 754 mmHg 53%
    14:00 +32°C° 0 mm 2 mps 753 mmHg 57%
    15:00 +31°C° 0 mm 2 mps 752 mmHg 61%
    16:00 +29°C° 0 mm 2 mps 753 mmHg 67%
    17:00 +27°C° 0 mm 2 mps 753 mmHg 73%
    18:00 +25°C° 0 mm 2 mps 753 mmHg 79%
    19:00 +26°C° 0.1 mm 2 mps 754 mmHg 77%
    20:00 +26°C° 0.1 mm 1 mps 754 mmHg 76%
    21:00 +26°C° 0.1 mm 1 mps 755 mmHg 75%
    22:00 +26°C° 0.2 mm 1 mps 755 mmHg 77%
    23:00 +26°C° 0.2 mm 1 mps 754 mmHg 79%

    18 December, Monday

    Time Temperature Precipitation Wind Pressure Humidity
    00:00 +26°C° 0.2 mm 1 mps 754 mmHg 81%
    01:00 +26°C° 0.2 mm 2 mps 754 mmHg 82%
    02:00 +26°C° 0.2 mm 2 mps 753 mmHg 83%
    03:00 +25°C° 0.2 mm 3 mps 753 mmHg 83%
    04:00 +25°C° 0.1 mm 3 mps 753 mmHg 81%
    05:00 +25°C° 0.1 mm 3 mps 754 mmHg 79%
    06:00 +25°C° 0.1 mm 3 mps 754 mmHg 77%
    07:00 +27°C° 0 mm 3 mps 755 mmHg 71%
    08:00 +29°C° 0 mm 3 mps 755 mmHg 65%
    09:00 +32°C° 0 mm 2 mps 755 mmHg 59%
    10:00 +32°C° 0.1 mm 2 mps 755 mmHg 60%
    11:00 +32°C° 0.1 mm 2 mps 754 mmHg 60%
    12:00 +32°C° 0.1 mm 2 mps 754 mmHg 61%
    13:00 +32°C° 0 mm 2 mps 753 mmHg 61%
    14:00 +32°C° 0 mm 2 mps 753 mmHg 61%
    15:00 +33°C° 0 mm 3 mps 752 mmHg 60%
    16:00 +30°C° 0.1 mm 2 mps 753 mmHg 68%
    17:00 +28°C° 0.1 mm 2 mps 753 mmHg 76%
    18:00 +26°C° 0.1 mm 2 mps 754 mmHg 83%
    19:00 +26°C° 0.2 mm 2 mps 754 mmHg 80%
    20:00 +25°C° 0.2 mm 2 mps 755 mmHg 77%
    21:00 +25°C° 0.2 mm 2 mps 755 mmHg 74%
    22:00 +25°C° 0.2 mm 2 mps 755 mmHg 75%
    23:00 +25°C° 0.2 mm 2 mps 754 mmHg 76%

    19 December, Tuesday

    Time Temperature Precipitation Wind Pressure Humidity
    00:00 +25°C° 0.2 mm 2 mps 754 mmHg 76%
    01:00 +25°C° 0.1 mm 2 mps 754 mmHg 78%
    02:00 +25°C° 0.1 mm 2 mps 754 mmHg 80%
    03:00 +25°C° 0.1 mm 2 mps 754 mmHg 81%
    04:00 +25°C° 0.2 mm 2 mps 754 mmHg 80%
    05:00 +25°C° 0.2 mm 2 mps 754 mmHg 79%
    06:00 +25°C° 0.2 mm 2 mps 755 mmHg 78%
    07:00 +27°C° 0 mm 2 mps 755 mmHg 72%
    08:00 +30°C° 0 mm 2 mps 755 mmHg 65%
    09:00 +33°C° 0 mm 3 mps 756 mmHg 59%
    10:00 +34°C° 0 mm 2 mps 755 mmHg 56%
    11:00 +34°C° 0 mm 2 mps 755 mmHg 53%
    12:00 +35°C° 0 mm 2 mps 754 mmHg 50%
    13:00 +34°C° 0.2 mm 2 mps 753 mmHg 51%
    14:00 +34°C° 0.2 mm 2 mps 753 mmHg 52%
    15:00 +33°C° 0.2 mm 3 mps 752 mmHg 53%
    16:00 +30°C° 0.5 mm 2 mps 753 mmHg 63%
    17:00 +28°C° 0.5 mm 2 mps 753 mmHg 73%
    18:00 +26°C° 0.5 mm 2 mps 754 mmHg 82%
    19:00 +26°C° 0.4 mm 2 mps 754 mmHg 79%
    20:00 +25°C° 0.4 mm 2 mps 755 mmHg 75%
    21:00 +25°C° 0.4 mm 2 mps 755 mmHg 72%
    22:00 +25°C° 0 mm 2 mps 755 mmHg 72%
    23:00 +25°C° 0 mm 2 mps 755 mmHg 72%
    Show more